| time (UTC) | temp F | wind direction | speed MPH | gust MPH | rain 1hr in | rain 24hr in | rain mn in | humidity % | barometer mb |
| 20260504223555 | 82 | 0 | 2.0 | 8.0 | 0.00 | 0.00 | 0.00 | 62 | 1006.3 |
| 20260504223103 | 82 | 200 | 2.0 | 8.0 | 0.00 | 0.00 | 0.00 | 60 | 1006.3 |
| 20260504222554 | 83 | 164 | 1.0 | 8.0 | 0.00 | 0.00 | 0.00 | 61 | 1006.2 |
| 20260504222055 | 83 | 0 | 2.0 | 8.0 | 0.00 | 0.00 | 0.00 | 60 | 1006.4 |
| 20260504221556 | 83 | 103 | 1.0 | 7.0 | 0.00 | 0.00 | 0.00 | 61 | 1006.4 |
| 20260504221055 | 83 | 50 | 3.0 | 7.0 | 0.00 | 0.00 | 0.00 | 60 | 1006.6 |
| 20260504220555 | 83 | 129 | 2.0 | 7.0 | 0.00 | 0.00 | 0.00 | 60 | 1006.5 |
| 20260504220058 | 83 | 49 | 1.0 | 10.0 | 0.00 | 0.00 | 0.00 | 60 | 1006.7 |
| 20260504215554 | 83 | 96 | 2.0 | 10.0 | 0.00 | 0.00 | 0.00 | 61 | 1006.7 |
| 20260504215055 | 82 | 207 | 1.0 | 10.0 | 0.00 | 0.00 | 0.00 | 61 | 1006.8 |
| 20260504214558 | 82 | 30 | 1.0 | 10.0 | 0.00 | 0.00 | 0.00 | 61 | 1006.9 |
| 20260504214058 | 82 | 0 | 3.0 | 10.0 | 0.00 | 0.00 | 0.00 | 60 | 1006.9 |
| 20260504213554 | 82 | 69 | 2.0 | 9.0 | 0.00 | 0.00 | 0.00 | 60 | 1007.0 |
| 20260504213102 | 83 | 36 | 2.0 | 8.0 | 0.00 | 0.00 | 0.00 | 59 | 1007.1 |
| 20260504212557 | 83 | 320 | 2.0 | 7.0 | 0.00 | 0.00 | 0.00 | 60 | 1007.1 |
| 20260504212057 | 83 | 0 | 2.0 | 12.0 | 0.00 | 0.00 | 0.00 | 60 | 1007.2 |
| 20260504211600 | 83 | 61 | 1.0 | 12.0 | 0.00 | 0.00 | 0.00 | 59 | 1007.3 |
| 20260504211055 | 83 | 184 | 3.0 | 12.0 | 0.00 | 0.00 | 0.00 | 59 | 1007.6 |
| 20260504210559 | 84 | 85 | 2.0 | 6.0 | 0.00 | 0.00 | 0.00 | 58 | 1007.5 |
| 20260504205555 | 84 | 124 | 2.0 | 10.0 | 0.00 | 0.00 | 0.00 | 59 | 1007.7 |
| 20260504205055 | 84 | 209 | 3.0 | 13.0 | 0.00 | 0.00 | 0.00 | 59 | 1007.6 |
| 20260504204556 | 84 | 150 | 2.0 | 13.0 | 0.00 | 0.00 | 0.00 | 58 | 1007.8 |
| 20260504204059 | 84 | 163 | 2.0 | 9.0 | 0.00 | 0.00 | 0.00 | 57 | 1008.0 |
| 20260504203555 | 84 | 352 | 2.0 | 7.0 | 0.00 | 0.00 | 0.00 | 57 | 1007.9 |
| 20260504203057 | 84 | 0 | 3.0 | 7.0 | 0.00 | 0.00 | 0.00 | 58 | 1007.9 |
| 20260504202555 | 86 | 44 | 1.0 | 7.0 | 0.00 | 0.00 | 0.00 | 57 | 1008.1 |
| 20260504202058 | 85 | 213 | 1.0 | 10.0 | 0.00 | 0.00 | 0.00 | 58 | 1008.2 |
| 20260504201604 | 84 | 27 | 3.0 | 10.0 | 0.00 | 0.00 | 0.00 | 57 | 1008.1 |
| 20260504201054 | 84 | 42 | 3.0 | 10.0 | 0.00 | 0.00 | 0.00 | 57 | 1008.3 |
| 20260504200555 | 85 | 117 | 3.0 | 9.0 | 0.00 | 0.00 | 0.00 | 55 | 1008.5 |
| 20260504195554 | 85 | 0 | 1.0 | 11.0 | 0.00 | 0.00 | 0.00 | 60 | 1008.7 |
| 20260504195052 | 84 | 145 | 2.0 | 11.0 | 0.00 | 0.00 | 0.00 | 57 | 1008.7 |
| 20260504194555 | 84 | 142 | 3.0 | 11.0 | 0.00 | 0.00 | 0.00 | 59 | 1009.1 |
| 20260504194055 | 84 | 134 | 2.0 | 9.0 | 0.00 | 0.00 | 0.00 | 56 | 1009.1 |
| 20260504193555 | 85 | 31 | 1.0 | 6.0 | 0.00 | 0.00 | 0.00 | 57 | 1009.0 |
| 20260504193058 | 85 | 126 | 1.0 | 7.0 | 0.00 | 0.00 | 0.00 | 57 | 1009.1 |
| 20260504192555 | 85 | 146 | 1.0 | 7.0 | 0.00 | 0.00 | 0.00 | 59 | 1009.2 |
| 20260504192055 | 84 | 107 | 2.0 | 12.0 | 0.00 | 0.00 | 0.00 | 58 | 1009.4 |
| 20260504191608 | 84 | 144 | 1.0 | 12.0 | 0.00 | 0.00 | 0.00 | 58 | 1009.4 |
| 20260504191055 | 83 | 168 | 2.0 | 7.0 | 0.00 | 0.00 | 0.00 | 57 | 1009.4 |
| 20260504190559 | 84 | 17 | 2.0 | 8.0 | 0.00 | 0.00 | 0.00 | 59 | 1009.4 |
| 20260504190055 | 84 | 192 | 2.0 | 10.0 | 0.00 | 0.00 | 0.00 | 57 | 1009.6 |
| 20260504185554 | 84 | 9 | 2.0 | 10.0 | 0.00 | 0.00 | 0.00 | 59 | 1009.6 |
| 20260504185055 | 83 | 64 | 2.0 | 10.0 | 0.00 | 0.00 | 0.00 | 57 | 1009.7 |
| 20260504184555 | 83 | 223 | 3.0 | 8.0 | 0.00 | 0.00 | 0.00 | 57 | 1009.7 |
| 20260504184054 | 84 | 325 | 1.0 | 7.0 | 0.00 | 0.00 | 0.00 | 57 | 1009.8 |
| 20260504183554 | 83 | 150 | 2.0 | 9.0 | 0.00 | 0.00 | 0.00 | 60 | 1009.8 |
| 20260504183053 | 83 | 29 | 2.0 | 9.0 | 0.00 | 0.00 | 0.00 | 59 | 1009.8 |
| 20260504182559 | 82 | 226 | 2.0 | 8.0 | 0.00 | 0.00 | 0.00 | 60 | 1010.0 |
| 20260504182052 | 83 | 314 | 1.0 | 8.0 | 0.00 | 0.00 | 0.00 | 62 | 1010.1 |
| 20260504181559 | 82 | 346 | 2.0 | 8.0 | 0.00 | 0.00 | 0.00 | 57 | 1010.2 |
| 20260504181052 | 82 | 352 | 1.0 | 7.0 | 0.00 | 0.00 | 0.00 | 59 | 1010.3 |
| 20260504180554 | 82 | 89 | 1.0 | 7.0 | 0.00 | 0.00 | 0.00 | 61 | 1010.5 |
| 20260504180052 | 82 | 194 | 2.0 | 9.0 | 0.00 | 0.00 | 0.00 | 60 | 1010.4 |
| 20260504175554 | 82 | 234 | 1.0 | 9.0 | 0.00 | 0.00 | 0.00 | 62 | 1010.7 |
| 20260504175055 | 81 | 158 | 2.0 | 8.0 | 0.00 | 0.00 | 0.00 | 62 | 1010.8 |
| 20260504174559 | 81 | 0 | 2.0 | 8.0 | 0.00 | 0.00 | 0.00 | 62 | 1010.7 |
| 20260504174059 | 81 | 78 | 2.0 | 8.0 | 0.00 | 0.00 | 0.00 | 61 | 1010.7 |
| 20260504173556 | 81 | 100 | 2.0 | 6.0 | 0.00 | 0.00 | 0.00 | 60 | 1010.8 |
| 20260504173058 | 81 | 124 | 2.0 | 7.0 | 0.00 | 0.00 | 0.00 | 63 | 1010.9 |
| 20260504172556 | 80 | 187 | 2.0 | 8.0 | 0.00 | 0.00 | 0.00 | 63 | 1011.0 |
| 20260504172055 | 81 | 201 | 1.0 | 8.0 | 0.00 | 0.00 | 0.00 | 64 | 1011.1 |
| 20260504171559 | 79 | 301 | 2.0 | 8.0 | 0.00 | 0.00 | 0.00 | 63 | 1011.2 |
| 20260504171056 | 79 | 71 | 3.0 | 8.0 | 0.00 | 0.00 | 0.00 | 62 | 1011.4 |
| 20260504170556 | 78 | 195 | 3.0 | 8.0 | 0.00 | 0.00 | 0.00 | 62 | 1011.5 |
| 20260504160107 | 76 | 288 | 1.0 | 6.0 | 0.00 | 0.00 | 0.00 | 65 | 1012.2 |
| 20260504151055 | 74 | 236 | 1.0 | 9.0 | 0.00 | 0.00 | 0.00 | 66 | 1012.4 |
| 20260504150555 | 73 | 123 | 2.0 | 9.0 | 0.00 | 0.00 | 0.00 | 67 | 1012.6 |
| 20260504150104 | 73 | 49 | 2.0 | 7.0 | 0.00 | 0.00 | 0.00 | 67 | 1012.8 |
| 20260504141054 | 68 | 23 | 2.0 | 11.0 | 0.00 | 0.00 | 0.00 | 76 | 1012.8 |
| 20260504140555 | 67 | 61 | 3.0 | 9.0 | 0.00 | 0.00 | 0.00 | 76 | 1012.7 |
| 20260504130554 | 61 | 71 | 1.0 | 7.0 | 0.00 | 0.00 | 0.00 | 84 | 1012.9 |
| 20260504120124 | 57 | 0 | 0.0 | 3.0 | 0.00 | 0.00 | 0.00 | 85 | 1012.8 |
| 20260504110558 | 57 | 0 | 1.0 | 4.0 | 0.00 | 0.00 | 0.00 | 84 | 1012.5 |
| 20260504100554 | 57 | 0 | 0.0 | 2.0 | 0.00 | 0.00 | 0.00 | 82 | 1013.1 |
| 20260504081558 | 59 | 0 | 0.0 | 2.0 | 0.00 | 0.00 | 0.00 | 76 | 1013.7 |
| 20260504081055 | 59 | 0 | 0.0 | 2.0 | 0.00 | 0.00 | 0.00 | 76 | 1013.7 |
| 20260504080555 | 59 | 0 | 0.0 | 2.0 | 0.00 | 0.00 | 0.00 | 76 | 1013.7 |
| 20260504050555 | 60 | 0 | 0.0 | 0.0 | 0.00 | 0.00 | 0.00 | 73 | 1015.7 |
| 20260504045557 | 61 | 0 | 0.0 | 0.0 | 0.00 | 0.00 | 0.00 | 71 | 1015.6 |
| 20260504045054 | 61 | 0 | 0.0 | 0.0 | 0.00 | 0.00 | 0.00 | 70 | 1015.6 |
| 20260504044555 | 62 | 0 | 0.0 | 1.0 | 0.00 | 0.00 | 0.00 | 69 | 1015.8 |
| 20260504044055 | 62 | 0 | 0.0 | 1.0 | 0.00 | 0.00 | 0.00 | 68 | 1015.6 |
| 20260504043555 | 63 | 0 | 0.0 | 1.0 | 0.00 | 0.00 | 0.00 | 68 | 1015.8 |
| 20260504043113 | 63 | 182 | 0.0 | 1.0 | 0.00 | 0.00 | 0.00 | 67 | 1015.8 |
| 20260504042555 | 63 | 0 | 0.0 | 2.0 | 0.00 | 0.00 | 0.00 | 67 | 1015.8 |
| 20260504042059 | 64 | 0 | 0.0 | 2.0 | 0.00 | 0.00 | 0.00 | 67 | 1015.8 |
| 20260504041556 | 64 | 0 | 0.0 | 4.0 | 0.00 | 0.00 | 0.00 | 66 | 1015.9 |
| 20260504041055 | 64 | 202 | 0.0 | 4.0 | 0.00 | 0.00 | 0.00 | 65 | 1015.9 |
| 20260504040557 | 64 | 165 | 0.0 | 2.0 | 0.00 | 0.00 | 0.00 | 65 | 1016.0 |
| 20260504040055 | 64 | 0 | 0.0 | 3.0 | 0.00 | 0.00 | 0.00 | 65 | 1016.1 |
| 20260504035557 | 64 | 0 | 0.0 | 3.0 | 0.00 | 0.00 | 0.00 | 65 | 1016.1 |
| 20260504035056 | 65 | 0 | 0.0 | 3.0 | 0.00 | 0.00 | 0.00 | 64 | 1016.1 |
| 20260504034555 | 65 | 0 | 0.0 | 1.0 | 0.00 | 0.00 | 0.00 | 64 | 1016.0 |
| 20260504034054 | 65 | 0 | 0.0 | 1.0 | 0.00 | 0.00 | 0.00 | 64 | 1016.0 |
| 20260504033554 | 65 | 0 | 0.0 | 1.0 | 0.00 | 0.00 | 0.00 | 64 | 1016.0 |
| 20260504033103 | 65 | 0 | 0.0 | 1.0 | 0.00 | 0.00 | 0.00 | 64 | 1016.0 |
| 20260504032555 | 65 | 0 | 0.0 | 1.0 | 0.00 | 0.00 | 0.00 | 64 | 1016.0 |
| 20260504032056 | 65 | 0 | 0.0 | 1.0 | 0.00 | 0.00 | 0.00 | 63 | 1015.8 |
| 20260504031559 | 65 | 0 | 0.0 | 2.0 | 0.00 | 0.00 | 0.00 | 63 | 1015.8 |
| 20260504031055 | 66 | 0 | 0.0 | 2.0 | 0.00 | 0.00 | 0.00 | 62 | 1015.8 |
| 20260504030555 | 66 | 0 | 0.0 | 2.0 | 0.00 | 0.00 | 0.00 | 61 | 1015.6 |
| 20260504030114 | 66 | 51 | 0.0 | 2.0 | 0.00 | 0.00 | 0.00 | 61 | 1015.4 |
| 20260504025555 | 66 | 0 | 0.0 | 2.0 | 0.00 | 0.00 | 0.00 | 61 | 1015.4 |
| 20260504025055 | 66 | 0 | 0.0 | 1.0 | 0.00 | 0.00 | 0.00 | 60 | 1015.5 |
| 20260504024558 | 66 | 0 | 0.0 | 1.0 | 0.00 | 0.00 | 0.00 | 60 | 1015.5 |
| 20260504024055 | 66 | 0 | 0.0 | 1.0 | 0.00 | 0.00 | 0.00 | 59 | 1015.6 |
| 20260504023555 | 67 | 0 | 0.0 | 3.0 | 0.00 | 0.00 | 0.00 | 59 | 1015.4 |
| 20260504023055 | 67 | 0 | 0.0 | 3.0 | 0.00 | 0.00 | 0.00 | 58 | 1015.6 |
| 20260504022557 | 67 | 0 | 0.0 | 1.0 | 0.00 | 0.00 | 0.00 | 58 | 1015.6 |
| 20260504022058 | 68 | 0 | 0.0 | 1.0 | 0.00 | 0.00 | 0.00 | 57 | 1015.4 |
| 20260504021558 | 68 | 0 | 0.0 | 3.0 | 0.00 | 0.00 | 0.00 | 56 | 1015.5 |
| 20260504021054 | 68 | 0 | 0.0 | 3.0 | 0.00 | 0.00 | 0.00 | 55 | 1015.3 |
| 20260504020557 | 69 | 0 | 0.0 | 3.0 | 0.00 | 0.00 | 0.00 | 55 | 1015.3 |
| 20260504020105 | 69 | 61 | 0.0 | 2.0 | 0.00 | 0.00 | 0.00 | 54 | 1015.3 |
| 20260504015556 | 69 | 0 | 0.0 | 3.0 | 0.00 | 0.00 | 0.00 | 54 | 1015.3 |
| 20260504015055 | 70 | 227 | 0.0 | 3.0 | 0.00 | 0.00 | 0.00 | 53 | 1015.3 |
| 20260504014604 | 70 | 0 | 0.0 | 4.0 | 0.00 | 0.00 | 0.00 | 53 | 1015.2 |
| 20260504014055 | 70 | 0 | 0.0 | 4.0 | 0.00 | 0.00 | 0.00 | 52 | 1015.2 |
| 20260504013555 | 70 | 0 | 0.0 | 4.0 | 0.00 | 0.00 | 0.00 | 52 | 1015.2 |
| 20260504013057 | 71 | 0 | 0.0 | 3.0 | 0.00 | 0.00 | 0.00 | 51 | 1015.2 |
| 20260504012555 | 71 | 50 | 0.0 | 6.0 | 0.00 | 0.00 | 0.00 | 50 | 1015.1 |
| 20260504012055 | 71 | 0 | 0.0 | 6.0 | 0.00 | 0.00 | 0.00 | 50 | 1015.0 |
| 20260504011553 | 72 | 45 | 1.0 | 4.0 | 0.00 | 0.00 | 0.00 | 50 | 1015.0 |
| 20260504011054 | 72 | 0 | 0.0 | 4.0 | 0.00 | 0.00 | 0.00 | 50 | 1014.9 |
| 20260504010556 | 72 | 63 | 1.0 | 4.0 | 0.00 | 0.00 | 0.00 | 48 | 1015.0 |
| 20260504010101 | 72 | 71 | 1.0 | 4.0 | 0.00 | 0.00 | 0.00 | 49 | 1014.9 |
| 20260504005556 | 73 | 0 | 0.0 | 4.0 | 0.00 | 0.00 | 0.00 | 47 | 1014.9 |
| 20260504005055 | 73 | 0 | 0.0 | 3.0 | 0.00 | 0.00 | 0.00 | 47 | 1014.9 |
| 20260504004553 | 73 | 56 | 0.0 | 3.0 | 0.00 | 0.00 | 0.00 | 47 | 1015.0 |
| 20260504004055 | 73 | 0 | 0.0 | 5.0 | 0.00 | 0.00 | 0.00 | 46 | 1014.9 |
| 20260504003555 | 74 | 0 | 0.0 | 5.0 | 0.00 | 0.00 | 0.00 | 46 | 1015.0 |
| 20260504003054 | 74 | 0 | 0.0 | 2.0 | 0.00 | 0.00 | 0.00 | 45 | 1015.1 |
| 20260504002555 | 74 | 0 | 0.0 | 2.0 | 0.00 | 0.00 | 0.00 | 44 | 1015.2 |
| 20260504002055 | 74 | 0 | 0.0 | 2.0 | 0.00 | 0.00 | 0.00 | 43 | 1015.1 |
| 20260504001600 | 75 | 40 | 0.0 | 2.0 | 0.00 | 0.00 | 0.00 | 41 | 1015.2 |
| 20260504001055 | 75 | 0 | 0.0 | 3.0 | 0.00 | 0.00 | 0.00 | 40 | 1015.1 |
| 20260504000555 | 76 | 243 | 0.0 | 7.0 | 0.00 | 0.00 | 0.00 | 39 | 1015.1 |
| 20260504000100 | 76 | 0 | 0.0 | 7.0 | 0.00 | 0.00 | 0.00 | 39 | 1015.4 |
| 20260503235555 | 76 | 185 | 1.0 | 7.0 | 0.00 | 0.00 | 0.00 | 38 | 1015.5 |
| 20260503235055 | 76 | 0 | 0.0 | 3.0 | 0.00 | 0.00 | 0.00 | 38 | 1015.5 |
| 20260503234555 | 76 | 0 | 0.0 | 7.0 | 0.00 | 0.00 | 0.00 | 37 | 1015.5 |
| 20260503234055 | 77 | 191 | 1.0 | 7.0 | 0.00 | 0.00 | 0.00 | 36 | 1015.6 |
| 20260503233558 | 77 | 130 | 1.0 | 7.0 | 0.00 | 0.00 | 0.00 | 37 | 1015.5 |
| 20260503233055 | 78 | 37 | 1.0 | 3.0 | 0.00 | 0.00 | 0.00 | 36 | 1015.3 |
| 20260503232557 | 78 | 314 | 1.0 | 6.0 | 0.00 | 0.00 | 0.00 | 37 | 1015.2 |
| 20260503232054 | 78 | 0 | 0.0 | 6.0 | 0.00 | 0.00 | 0.00 | 36 | 1015.2 |
| 20260503231558 | 79 | 203 | 1.0 | 5.0 | 0.00 | 0.00 | 0.00 | 35 | 1015.2 |
| 20260503231056 | 79 | 204 | 1.0 | 5.0 | 0.00 | 0.00 | 0.00 | 36 | 1015.4 |
| 20260503230556 | 79 | 121 | 0.0 | 4.0 | 0.00 | 0.00 | 0.00 | 36 | 1015.4 |
| 20260503230113 | 79 | 49 | 0.0 | 4.0 | 0.00 | 0.00 | 0.00 | 34 | 1015.5 |
| 20260503225555 | 79 | 0 | 0.0 | 10.0 | 0.00 | 0.00 | 0.00 | 34 | 1015.6 |
| 20260503225055 | 79 | 0 | 1.0 | 10.0 | 0.00 | 0.00 | 0.00 | 36 | 1015.6 |
| 20260503224554 | 79 | 87 | 1.0 | 5.0 | 0.00 | 0.00 | 0.00 | 35 | 1015.6 |
| 20260503224055 | 79 | 347 | 1.0 | 8.0 | 0.00 | 0.00 | 0.00 | 36 | 1015.6 |